Date,TemperatureHighF,TemperatureAvgF,TemperatureLowF,DewpointHighF,DewpointAvgF,DewpointLowF,HumidityHigh,HumidityAvg,HumidityLow,PressureMaxIn,PressureMinIn,WindSpeedMaxMPH,WindSpeedAvgMPH,GustSpeedMaxMPH,PrecipitationSumIn
2013-1-1,29.7,22.4,10.9,15.3,7.8,0.7,67,54,33,30.15,30.01,6,3,11,0.00
2013-1-2,26.6,22.1,16.0,14.5,10.9,5.3,69,62,55,30.19,30.07,8,4,14,0.00
2013-1-3,29.3,22.4,13.1,22.7,12.3,0.0,77,65,54,30.16,30.06,8,4,15,0.00
2013-1-4,31.6,27.0,22.8,21.9,15.7,12.2,75,62,52,30.19,30.04,13,7,18,0.00
2013-1-5,33.8,26.2,14.0,28.0,18.2,7.0,84,72,58,30.28,30.02,8,4,13,0.00
2013-1-6,36.1,33.6,32.2,29.6,26.6,21.9,83,75,65,30.27,29.92,9,5,14,0.01
2013-1-7,37.2,31.8,28.4,22.5,20.8,18.6,70,64,52,30.38,30.15,15,6,23,0.01
2013-1-8,37.9,29.4,20.8,25.9,20.7,14.7,78,70,57,30.25,30.16,9,4,12,0.00
2013-1-9,47.5,38.4,26.6,32.3,25.1,18.5,84,60,34,30.45,30.03,15,7,20,0.00
2013-1-10,42.8,32.2,20.7,30.3,22.8,14.9,82,68,49,30.57,30.17,11,4,16,0.09
2013-1-11,58.5,44.9,35.1,50.1,40.4,30.1,94,85,66,30.17,29.65,13,6,20,0.41
2013-1-12,61.7,51.0,44.2,48.6,45.0,41.8,92,81,60,29.97,29.85,10,4,14,0.01
2013-1-13,47.8,37.6,29.7,45.1,34.3,24.0,91,88,79,30.06,29.75,9,3,14,0.70
2013-1-14,29.7,23.4,15.6,24.0,13.8,9.0,79,67,58,30.43,30.06,0,0,0,0.00
2013-1-15,31.8,21.7,11.7,18.9,12.3,5.3,77,67,54,30.42,30.15,5,1,7,0.00
2013-1-16,38.8,28.8,18.9,24.0,15.3,7.9,80,60,29,30.15,29.82,13,5,23,0.01
2013-1-17,36.9,33.4,27.1,25.4,20.2,7.3,73,59,42,30.20,29.96,14,6,23,0.00
2013-1-18,34.7,34.2,33.6,19.3,17.8,15.7,53,51,46,29.92,29.92,16,10,25,0.00
2013-1-19,48.7,42.2,34.7,33.0,27.2,19.3,64,55,47,29.92,29.92,14,10,23,0.00
2013-1-20,43.9,22.1,16.3,32.1,3.8,-5.7,82,45,34,30.01,29.70,22,10,32,0.72
2013-1-21,17.4,13.1,4.1,7.9,0.1,-9.5,70,55,41,29.97,29.75,12,5,17,0.00
2013-1-22,10.4,4.8,-2.9,-4.6,-12.0,-19.3,58,45,28,30.14,29.97,9,5,13,0.00
2013-1-23,25.9,10.5,3.6,4.3,-2.3,-8.0,67,55,47,30.13,29.72,10,4,10,0.00
2013-1-24,23.4,13.6,6.6,5.1,-3.0,-13.7,68,49,24,30.44,29.98,10,3,15,0.00
2013-1-25,21.4,17.1,12.2,11.2,6.1,-3.5,73,62,48,30.36,29.83,10,4,14,0.00
2013-1-26,27.5,21.8,16.5,14.7,11.4,7.6,76,64,47,30.30,29.91,7,2,13,0.00
2013-1-27,30.2,21.0,10.0,25.5,11.2,1.4,85,66,47,30.33,29.94,17,5,23,0.00
2013-1-28,46.2,38.1,30.2,44.6,35.5,25.7,95,90,83,29.99,29.70,7,2,11,0.20
2013-1-29,57.6,47.2,35.1,54.1,45.0,32.2,96,92,85,29.87,29.32,12,6,18,0.60
2013-1-30,61.5,49.9,31.8,56.3,46.1,23.8,94,87,74,29.32,28.99,16,7,22,0.40
2013-1-31,31.5,21.9,16.2,23.8,10.6,2.8,82,62,48,29.76,29.17,18,7,23,0.09